This demonstration page uses our WeatherBlox Daily Observations layout. Learn more.

Left ArrowRight Arrow

39.95238, -75.16362

Hourly Observations for May 9, 2016

Temp ( °F °C ) Dew Point ( °F °C ) Humidity (%) Winds ( mph kmh ) Pressure ( in mb ) Visibility ( mi km ) Precip ( " mm )
12:54 am 00:54 Mostly Clear 58 14.4 31 -0.6 36 36 W 8 13 29.99 1016 10 16 0.00 0.00
1:54 am 01:54 Clear 53 11.7 38 3.3 57 57 WSW 6 9 30.00 1016 10 16 0.00 0.00
2:54 am 02:54 Clear 53 11.7 36 2.2 52 52 WSW 7 11 29.99 1016 10 16 0.00 0.00
3:54 am 03:54 Clear 51 10.6 38 3.3 61 61 SW 5 7 29.99 1016 10 16 0.00 0.00
4:54 am 04:54 Mostly Clear 52 11.1 37 2.8 57 57 SW 8 13 29.99 1016 10 16 0.00 0.00
5:54 am 05:54 Mostly Cloudy 50 10 39 3.9 66 66 SW 6 9 30.00 1016 10 16 0.00 0.00
6:54 am 06:54 Mostly Cloudy 53 11.7 40 4.4 61 61 SW 10 17 30.01 1016 10 16 0.00 0.00
7:54 am 07:54 Mostly Cloudy 57 13.9 41 5 55 55 SW 13 20 30.04 1017 10 16 0.00 0.00
8:54 am 08:54 Mostly Cloudy 62 16.7 40 4.4 44 44 SW 12 19 30.04 1017 10 16 0.00 0.00
9:54 am 09:54 Mostly Cloudy 66 18.9 41 5 40 40 SW 12 19 30.04 1017 10 16 0.00 0.00
10:54 am 10:54 Mostly Cloudy 69 20.6 41 5 36 36 SW 13 20 30.06 1018 10 16 0.00 0.00
11:54 am 11:54 Mostly Cloudy 69 20.6 40 4.4 35 35 SW 21 33 30.06 1018 10 16 0.00 0.00
12:54 pm 12:54 Cloudy 69 20.6 37 2.8 31 31 SW 21 33 30.07 1018 10 16 0.00 0.00
1:54 pm 13:54 Cloudy 69 20.6 36 2.2 30 30 WSW 20 31 30.06 1018 10 16 0.00 0.00
2:54 pm 14:54 Cloudy 68 20 36 2.2 31 31 SW 20 31 30.03 1017 10 16 0.00 0.00
3:54 pm 15:54 Cloudy 67 19.4 41 5 39 39 SW 16 26 30.02 1017 10 16 0.00 0.00
4:54 pm 16:54 Cloudy 66 18.9 44 6.7 45 45 SW 16 26 30.01 1016 10 16 0.00 0.00
5:54 pm 17:54 Cloudy 65 18.3 45 7.2 49 49 SW 15 24 30.02 1017 10 16 0.00 0.00
6:54 pm 18:54 Cloudy 64 17.8 47 8.3 54 54 SW 13 20 30.03 1017 10 16 0.00 0.00
7:54 pm 19:54 Mostly Cloudy 63 17.2 48 8.9 58 58 SW 12 19 30.04 1017 10 16 0.00 0.00
8:54 pm 20:54 Mostly Cloudy 61 16.1 49 9.4 65 65 SW 9 15 30.07 1018 10 16 0.00 0.00
9:54 pm 21:54 Mostly Cloudy 61 16.1 48 8.9 63 63 SW 9 15 30.09 1019 10 16 0.00 0.00
10:54 pm 22:54 Mostly Cloudy 59 15 48 8.9 67 67 SW 7 11 30.10 1019 10 16 0.00 0.00
11:54 pm 23:54 Mostly Cloudy 58 14.4 49 9.4 72 72 W 6 9 30.11 1020 10 16 0.00 0.00

Powered by AerisWeather